Theta_e
309 309 309 309 308 306 303 301 301 302 302 301 299 298 298 297 297 297 297 297 297 295 295 295 295 296 296 298 300 301 302 303 304 305 305 306 305 305
309 308 308 306 302 301 299 299 299 299 299 298 298 298 297 297 297 296 296 296 295 295 295 294 293 293 294 296 297 299 301 301 302 302 303 304 304 304
307 304 302 300 298 298 297 297 298 298 297 297 297 297 297 297 297 297 296 297 296 296 296 294 293 293 294 297 298 299 299 300 301 301 301 302 303 304
300 299 298 297 297 298 298 297 297 297 297 297 297 297 297 297 296 296 296 296 295 296 296 295 295 295 295 296 297 298 298 299 300 300 301 301 302 303
298 297 298 298 298 298 298 297 297 297 297 297 297 297 297 296 296 296 296 296 297 296 296 295 295 295 296 296 297 299 298 298 298 298 300 300 301 302
298 297 297 297 297 298 298 298 297 297 297 297 296 296 296 296 296 296 296 296 296 296 296 296 296 295 295 295 296 298 298 298 297 297 299 299 300 300
298 298 298 298 297 297 298 297 297 297 297 297 297 295 296 296 295 296 296 296 296 295 296 297 297 297 297 297 296 295 296 295 297 297 298 299 299 298
298 298 298 298 297 297 297 297 298 298 297 296 296 296 296 295 295 295 295 296 296 296 296 296 296 297 297 297 297 296 296 296 295 295 296 296 298 298
296 296 296 295 295 295 295 295 295 295 295 295 295 294 294 295 295 295 295 295 295 296 295 295 295 296 296 297 297 295 295 295 296 295 295 296 296 296
294 294 293 293 293 293 293 293 293 294 294 293 294 294 294 295 295 295 296 296 296 296 296 296 295 296 296 296 297 296 295 295 295 296 296 295 296 296
292 292 292 292 293 293 293 293 293 294 294 294 295 295 295 296 295 297 297 297 296 295 295 295 295 296 296 296 296 296 295 295 294 294 295 296 297 297
293 292 292 292 292 293 293 293 293 293 294 294 294 294 295 294 294 294 295 296 296 295 295 295 295 294 294 295 295 296 295 295 295 294 294 296 297 297
291 291 291 291 291 292 292 292 293 294 294 295 295 294 293 294 294 294 295 295 295 295 294 293 293 293 293 293 293 293 293 294 294 295 295 296 296 296
291 290 291 291 291 292 293 293 293 292 293 292 292 292 292 292 292 292 292 293 293 293 292 292 292 292 292 292 292 292 292 292 293 294 295 295 295 294
290 291 291 291 292 292 291 291 291 291 291 291 291 291 291 291 290 290 290 290 291 291 290 290 290 291 291 291 291 291 290 291 292 292 294 294 294 295
291 291 291 290 290 290 289 290 289 289 289 289 289 289 289 289 289 289 288 289 289 290 289 289 289 290 290 291 291 291 290 290 291 292 292 292 293 294
290 290 290 290 290 289 289 288 288 288 288 288 288 288 288 288 289 289 288 288 289 289 289 290 290 290 290 290 291 290 290 290 290 290 291 291 292 293
288 289 289 288 288 288 288 288 288 288 288 288 288 288 288 288 288 288 288 288 288 289 289 289 289 290 290 290 290 290 290 290 290 291 291 291 291 292
289 289 289 289 289 289 289 288 288 288 288 288 288 288 288 288 287 288 288 288 289 289 289 288 289 290 290 290 290 290 290 290 291 291 291 291 293 292
288 288 288 289 289 289 289 289 288 288 288 288 288 288 288 288 288 288 288 288 288 288 288 288 288 289 290 290 290 290 290 290 291 291 292 292 293 293
288 290 290 290 291 291 290 289 289 288 288 288 288 288 288 288 288 288 288 288 288 289 289 288 289 289 290 290 289 290 290 290 290 291 291 292 292 293
290 291 291 292 292 292 292 292 291 290 289 288 288 288 288 288 288 288 288 288 288 288 288 288 289 289 289 290 290 290 290 291 291 291 291 291 292 293
291 292 292 292 292 292 292 293 292 292 291 290 288 288 288 288 288 288 288 288 288 288 288 288 289 289 289 289 289 289 290 290 290 291 292 292 293 293
Wind_Speed
24 23 21 21 21 20 18 16 13 17 19 16 15 10 13 15 16 18 17 18 21 25 24 24 23 22 22 21 20 18 18 19 20 19 18 17 17 17
21 20 20 20 19 18 19 17 13 15 20 17 17 16 17 19 20 22 21 25 26 27 25 25 25 24 25 24 24 22 20 21 21 22 23 21 20 20
18 18 19 19 17 17 16 14 14 14 18 19 18 19 19 20 20 20 20 20 19 21 22 23 25 26 26 24 24 23 22 21 22 23 23 23 23 22
17 17 17 18 17 12 12 12 14 14 16 19 19 19 20 20 21 22 20 20 20 20 21 24 24 23 24 24 26 24 23 22 24 23 23 22 23 24
16 16 13 13 13 13 14 14 15 15 17 19 20 18 20 21 22 22 22 20 19 20 21 19 19 19 18 18 21 22 23 26 28 25 22 24 23 23
13 15 15 14 15 16 17 18 18 19 19 20 24 25 21 22 22 23 21 16 17 14 16 16 17 18 19 20 18 17 19 22 24 23 23 23 22 23
13 14 15 16 20 22 20 20 20 23 25 28 25 27 24 24 25 22 24 21 18 16 15 13 12 13 13 14 16 18 19 20 21 23 23 23 24 25
16 17 18 19 21 22 23 24 24 24 26 26 25 27 27 29 23 24 22 21 20 12 13 12 12 12 14 14 17 19 19 21 19 20 21 23 24 24
16 17 18 17 18 18 19 20 22 25 27 28 30 31 31 29 24 23 23 23 23 20 19 20 16 16 15 14 17 15 17 17 20 21 20 21 22 24
17 18 19 20 19 20 21 22 23 23 25 27 27 26 24 23 23 23 24 26 24 27 22 27 17 17 14 16 16 22 18 18 18 20 22 21 20 21
19 19 19 20 19 20 19 21 23 24 23 25 26 26 27 28 27 28 28 26 28 21 15 17 14 15 16 19 17 18 24 25 25 25 21 21 20 21
18 18 17 18 19 18 20 22 25 24 23 23 22 24 24 25 24 27 28 26 17 15 18 18 18 17 17 16 14 14 13 11 16 24 26 21 23 21
19 20 18 21 19 19 19 20 23 25 27 28 26 16 15 17 18 18 18 20 21 24 20 19 20 22 23 22 18 16 17 16 14 13 19 23 24 24
18 19 19 19 19 20 21 22 23 22 25 24 21 20 21 20 20 20 23 27 28 29 28 23 28 27 24 24 21 18 14 14 16 16 14 15 19 23
15 16 18 20 20 21 18 20 23 23 24 24 24 25 22 20 20 22 21 20 23 26 24 21 23 24 25 25 21 18 17 14 14 18 17 16 16 19
16 22 21 21 21 22 19 17 16 17 18 20 22 21 22 22 21 18 20 18 19 19 19 18 20 21 23 22 21 20 19 16 6 14 17 17 17 18
18 18 15 14 14 14 14 15 18 17 16 16 17 18 18 17 18 18 18 16 18 16 16 14 16 18 22 21 22 21 18 18 16 16 18 21 19 18
13 11 12 12 13 14 15 16 17 16 17 17 18 18 18 16 16 16 17 17 17 16 16 17 15 15 18 20 22 20 19 19 17 16 16 17 18 16
10 13 15 16 17 18 19 19 20 19 19 19 17 18 18 19 17 16 17 19 19 17 19 16 13 16 17 19 15 16 17 16 16 17 18 19 19 16
11 15 16 16 17 19 20 21 21 20 20 19 19 18 18 18 17 16 16 17 17 18 17 16 15 18 19 18 15 14 15 15 17 17 17 16 17 16
12 12 12 15 17 18 19 20 20 19 17 17 17 18 18 18 19 18 18 18 18 19 18 17 15 13 16 18 20 19 18 19 22 21 20 20 22 20
9 10 14 15 17 19 22 24 25 22 18 15 14 14 14 15 15 16 16 16 16 17 20 17 14 14 15 17 19 18 17 15 17 18 20 20 20 18
7 11 14 13 16 17 20 24 21 23 23 18 13 11 11 13 14 15 16 16 17 18 17 16 15 15 17 20 21 23 21 19 20 22 23 22 20 21
Wind_Direction
250 249 249 252 257 257 260 262 262 272 273 276 271 271 277 279 280 284 286 280 280 285 284 281 277 276 275 276 276 272 269 265 259 260 261 268 271 275
246 248 253 257 259 264 267 266 263 265 273 273 273 274 280 282 285 286 285 280 284 284 279 275 275 274 273 271 270 270 266 261 261 261 259 260 266 269
252 256 259 264 268 272 271 269 266 269 272 277 275 281 284 286 287 287 287 284 282 280 280 277 274 274 272 269 267 266 263 261 258 262 265 264 258 262
260 263 270 272 275 269 266 268 269 267 270 275 276 281 283 287 288 289 289 283 279 277 275 278 278 273 271 271 264 257 258 256 255 256 259 259 257 256
271 272 267 265 268 270 271 268 267 268 267 273 283 283 288 289 291 290 290 288 281 278 287 288 278 274 265 273 262 258 255 253 256 259 255 248 243 246
264 269 269 267 268 268 270 270 269 268 270 271 276 282 289 289 286 286 286 281 276 277 276 284 274 275 271 269 269 265 260 258 255 255 255 254 253 250
276 279 278 272 268 274 273 272 272 269 270 276 278 287 281 280 280 283 279 286 282 280 284 278 272 274 277 283 271 269 265 263 258 253 251 253 256 255
287 282 277 277 281 278 271 265 269 279 279 280 281 278 279 282 282 283 278 278 280 277 273 271 269 272 273 267 264 264 268 265 260 256 255 253 251 254
288 287 286 284 284 285 278 275 275 268 265 269 272 271 275 274 278 274 270 274 276 276 275 274 272 274 261 268 273 266 270 271 261 258 258 256 253 249
286 287 286 286 283 278 278 277 275 275 271 270 268 272 270 270 265 268 268 269 266 263 274 268 284 267 274 260 251 276 268 265 268 261 257 252 252 249
294 292 288 287 287 288 283 280 277 279 280 277 274 271 271 270 272 276 273 281 265 271 271 269 276 278 277 272 269 269 280 277 261 253 258 245 245 246
287 285 283 284 288 285 283 284 283 283 283 278 272 265 260 264 260 260 267 270 259 264 270 258 272 275 276 273 259 261 263 285 281 249 241 241 238 243
294 293 290 291 293 289 286 282 277 283 279 277 269 277 277 274 272 267 261 259 260 261 265 269 267 266 260 268 272 265 265 269 271 264 239 237 238 238
293 295 295 297 297 293 288 284 284 289 290 288 279 277 275 272 270 266 261 254 255 260 258 256 260 260 262 261 266 271 268 271 249 246 242 239 244 238
300 299 297 290 290 284 290 291 287 282 278 277 277 276 275 273 263 261 267 263 257 257 260 260 256 254 252 256 261 264 268 264 253 248 234 239 246 244
310 305 305 305 295 294 297 293 287 282 277 274 275 275 271 268 273 270 272 268 267 266 268 263 253 252 255 254 257 262 267 264 249 243 250 248 247 242
304 305 307 312 312 309 303 300 300 299 296 291 281 280 284 285 276 273 278 274 263 262 264 259 259 254 250 250 252 259 259 260 262 256 249 245 243 248
320 316 318 320 318 315 312 310 308 303 295 292 285 281 278 278 275 272 269 265 262 261 262 269 261 252 248 247 247 253 257 256 254 254 255 252 255 242
342 341 341 341 338 336 330 325 319 314 310 299 289 280 276 276 275 270 269 266 262 260 270 278 254 243 242 250 256 257 251 252 252 249 247 250 254 256
352 351 352 348 341 335 330 325 322 316 310 304 297 289 282 278 273 269 267 267 264 265 271 274 258 245 242 251 258 253 258 250 248 252 254 259 266 268
7 9 7 356 352 353 357 354 343 331 318 302 292 287 284 280 277 272 271 274 269 269 263 271 268 256 254 255 258 260 259 259 250 245 249 256 261 266
21 13 1 358 358 358 354 354 356 354 344 324 306 290 285 284 280 275 274 273 271 263 271 275 263 258 252 250 256 262 262 259 267 265 258 250 252 257
10 357 356 0 355 353 351 357 2 356 355 352 338 311 293 282 280 278 276 274 272 274 273 269 262 258 257 255 259 265 265 263 263 262 262 263 263 272